Regional Weather Roundup
Issued by NWS

Home | Current Version | Previous Version | Graphics & Text | Print | Product List | Glossary On
Versions: 1 2 3 4 5 6 7 8 9 10 11 12 13 14 15 16 17 18 19 20 21 22 23 24 25 26 27 28 29 30 31 32 33 34 35 36 37 38 39 40 41 42 43 44 45 46 47 48 49 50
000
ASUS44 KMEG 110500
RWRTN
TENNESSEE HOURLY STATE WEATHER ROUNDUP
NATIONAL WEATHER SERVICE MEMPHIS TN
1100 PM CST SUN DEC 10 2017

TNZ002-004-019-021-049-052-054-088>092-110600-
WEST TENNESSEE

CITY           SKY/WX    TMP DP  RH WIND       PRES   REMARKS
MEMPHIS INTL   CLEAR     46  31  55 W5        30.19S
NWS MEMPHIS      N/A     40 N/A N/A MISG        N/A
JACKSON        CLEAR     45  30  55 SW9G18    30.17F
DYERSBURG      CLEAR     42  30  62 W6        30.18S
$$

TNZ008-025-027-028-033-062-065-066-110600-
NORTH MIDDLE TENNESSEE

CITY           SKY/WX    TMP DP  RH WIND       PRES   REMARKS
NASHVILLE      CLEAR     43  25  49 SW3       30.18S
CLARKSVILLE    PTCLDY    42  24  49 SW6       30.15S
SMYRNA         CLEAR     33  23  66 SE6       30.20R WCI  28
CROSSVILLE     CLEAR     33  19  56 SW5       30.17S WCI  29
$$

TNZ061-075-076-078-094-096-097-110600-
SOUTH MIDDLE TENNESSEE

CITY           SKY/WX    TMP DP  RH WIND       PRES   REMARKS
$$

TNZ017-018-042-046-047-110600-
NORTHEAST TENNESSEE

CITY           SKY/WX    TMP DP  RH WIND       PRES   REMARKS
TRI CITIES     PTCLDY    24  21  88 CALM      30.17S
$$

TNZ012-013-036-069-073-074-110600-
CENTRAL EAST TENNESSEE

CITY           SKY/WX    TMP DP  RH WIND       PRES   REMARKS
KNOXVILLE      PTCLDY    35  25  66 SW12      30.19S WCI  27
OAK RIDGE      CLEAR     31  23  72 CALM      30.22S
$$

TNZ083-085-099-110600-
SOUTHEAST TENNESSEE

CITY           SKY/WX    TMP DP  RH WIND       PRES   REMARKS
CHATTANOOGA    CLEAR     32  26  78 CALM      30.24S
$$

SKY/WX REPORTED AS FAIR MEANS FEW OR NO CLOUDS BELOW
12 THOUSAND FEET.





USA.gov is the U.S. government's official web portal to all federal, state and local government web resources and services.